Retour au catalogue

FALCON 9 R/B

ActifHEO
NORAD 52818·ROCKET BODY·🇺🇸 United States

Lancé Jun 8, 2022 depuis Cape Canaveral Space Force Station

Loading…

Prochains Passages (prochaines 24 heures)

TLE

FraisSource: Space-Track

Époque: Sep 12, 2026, 03:40 UTC

1 52818U 22061B   26255.15298183 -.00000045  00000-0  15131-3 0  9996
2 52818  18.8019 307.3411 7631729 300.7854   6.0716  1.82308929 27915

Suivez FALCON 9 R/B en temps réel avec AllMySat

Download on the App Store